EW6223 Weather Reports


Display with metric or nautical units.
time (UTC)temp
F
wind
direction
speed
MPH
gust
MPH
rain 1hr
in
rain 24hr
in
rain mn
in
humidity
%
barometer
mb
20230206070027 66 61 0.0 0.0 0.00 0.00 0.00 70 1009.0
20230206064531 66 61 1.0 3.0 0.00 0.00 0.00 74 1009.1
20230206063019 67 61 1.0 4.0 0.00 0.00 0.00 78 1009.3
20230206061519 66 61 0.0 0.0 0.00 0.00 0.00 79 1009.3
20230206060018 66 61 0.0 0.0 0.00 0.00 0.00 80 1009.4
20230206054521 67 61 0.0 0.0 0.00 0.00 0.00 81 1009.4
20230206053013 67 61 0.0 0.0 0.00 0.00 0.00 82 1009.3
20230206051513 67 61 0.0 0.0 0.00 0.00 0.00 81 1009.3
20230206050013 67 61 0.0 0.0 0.00 0.00 0.00 81 1009.4
20230206044509 68 61 0.0 0.0 0.00 0.00 0.00 79 1009.3
20230206043006 68 61 0.0 0.0 0.00 0.00 0.00 78 1009.3
20230206041510 69 61 0.0 0.0 0.00 0.00 0.00 77 1009.3
20230206040002 69 61 0.0 0.0 0.00 0.00 0.00 76 1009.1
20230206034504 69 61 0.0 0.0 0.00 0.00 0.00 75 1009.2
20230206033059 70 61 0.0 0.0 0.00 0.00 0.00 74 1009.1
20230206031603 70 61 0.0 0.0 0.00 0.00 0.00 73 1009.1
20230206030104 70 61 0.0 0.0 0.00 0.00 0.00 73 1008.9
20230206024601 70 61 0.0 3.0 0.00 0.00 0.00 70 1008.8
20230206023055 71 300 0.0 1.0 0.00 0.00 0.00 63 1008.7
20230206021552 71 300 0.0 1.0 0.00 0.00 0.00 63 1008.7
20230206020051 72 300 0.0 2.0 0.00 0.00 0.00 62 1008.6
20230206014556 72 293 1.0 6.0 0.00 0.00 0.00 62 1008.5
20230206013100 73 270 3.0 9.0 0.00 0.00 0.00 65 1008.4
20230206011522 73 292 3.0 8.0 0.00 0.00 0.00 65 1008.3
20230206010019 75 270 4.0 8.0 0.00 0.00 0.00 64 1008.2
20230206004519 76 246 3.0 11.0 0.00 0.00 0.00 62 1008.2
20230206003023 76 225 3.0 9.0 0.00 0.00 0.00 58 1008.0
20230206001514 78 223 4.0 9.0 0.00 0.00 0.00 53 1008.0
20230206000014 79 264 5.0 9.0 0.00 0.00 0.00 47 1007.9
20230205234544 79 278 3.0 10.0 0.00 0.00 0.00 45 1007.9
20230205233044 79 239 2.0 10.0 0.00 0.00 0.00 45 1008.0
20230205231543 79 255 6.0 11.0 0.00 0.00 0.00 45 1008.1
20230205230046 79 266 4.0 9.0 0.00 0.00 0.00 49 1008.1
20230205224538 79 231 2.0 9.0 0.00 0.00 0.00 49 1008.2
20230205223043 80 216 4.0 9.0 0.00 0.00 0.00 42 1008.4
20230205221531 81 267 4.0 9.0 0.00 0.00 0.00 39 1008.4
20230205220039 81 214 3.0 8.0 0.00 0.00 0.00 36 1008.7
20230205214527 80 221 2.0 6.0 0.00 0.00 0.00 38 1008.8
20230205213052 79 220 4.0 8.0 0.00 0.00 0.00 41 1008.9
20230205211520 79 233 4.0 8.0 0.00 0.00 0.00 39 1009.1
20230205210022 79 249 3.0 6.0 0.00 0.00 0.00 42 1009.2
20230205204518 80 194 2.0 7.0 0.00 0.00 0.00 42 1009.4
20230205203015 80 246 2.0 5.0 0.00 0.00 0.00 46 1009.6
20230205201508 79 218 1.0 5.0 0.00 0.00 0.00 47 1009.8
20230205200007 78 235 2.0 7.0 0.00 0.00 0.00 49 1010.1
20230205194602 78 262 2.0 5.0 0.00 0.00 0.00 51 1010.4
20230205193058 77 216 2.0 7.0 0.00 0.00 0.00 49 1010.7
20230205191552 77 253 2.0 5.0 0.00 0.00 0.00 53 1010.9
20230205190048 76 228 3.0 7.0 0.00 0.00 0.00 54 1011.2
20230205184559 76 204 2.0 6.0 0.00 0.00 0.00 54 1011.5
20230205183048 76 234 1.0 5.0 0.00 0.00 0.00 54 1011.7
20230205181541 75 210 1.0 7.0 0.00 0.00 0.00 54 1011.9
20230205180032 75 198 1.0 5.0 0.00 0.00 0.00 58 1012.0
20230205174529 75 182 2.0 6.0 0.00 0.00 0.00 54 1012.1
20230205173024 74 161 0.0 0.0 0.00 0.00 0.00 56 1012.1
20230205171518 73 167 0.0 0.0 0.00 0.00 0.00 55 1012.2
20230205170013 72 154 0.0 0.0 0.00 0.00 0.00 58 1012.1
20230205164512 71 149 0.0 0.0 0.00 0.00 0.00 59 1012.1
20230205163011 71 218 0.0 0.0 0.00 0.00 0.00 54 1012.0
20230205161508 71 229 0.0 0.0 0.00 0.00 0.00 57 1011.8
20230205160000 70 294 0.0 0.0 0.00 0.00 0.00 56 1011.6
20230205154613 70 294 0.0 0.0 0.00 0.00 0.00 57 1011.4
20230205153057 69 294 0.0 0.0 0.00 0.00 0.00 58 1011.3
20230205151602 68 294 0.0 0.0 0.00 0.00 0.00 60 1011.2
20230205150052 68 295 0.0 0.0 0.00 0.00 0.00 58 1011.1
20230205144544 67 295 0.0 0.0 0.00 0.00 0.00 57 1011.0
20230205143040 0 0.0 0.0 0.00 0.00 0.00 1010.9
20230205141542 0 0.0 0.0 0.00 0.00 0.00 1010.8
20230205140034 0 0.0 0.0 0.00 0.00 0.00 1010.7
20230205134541 0 0.0 0.0 0.00 0.00 0.00 1010.7
20230205133031 64 294 0.0 0.0 0.00 0.00 0.00 59 1010.6
20230205131525 64 295 0.0 0.0 0.00 0.00 0.00 61 1010.6
20230205130032 64 294 0.0 0.0 0.00 0.00 0.00 63 1010.5
20230205124536 63 327 0.0 0.0 0.00 0.00 0.00 64 1010.3
20230205123054 64 68 0.0 0.0 0.00 0.00 0.00 61 1010.1
20230205121533 65 68 0.0 0.0 0.00 0.00 0.00 60 1010.1
20230205120034 65 68 0.0 0.0 0.00 0.00 0.00 61 1010.1
20230205114534 65 68 0.0 0.0 0.00 0.00 0.00 61 1009.9
20230205113029 64 64 0.0 6.0 0.00 0.00 0.00 63 1010.0
20230205111628 64 305 0.0 0.0 0.00 0.00 0.00 70 1010.1
20230205110057 65 305 0.0 0.0 0.00 0.00 0.00 69 1010.1
20230205104557 64 305 0.0 0.0 0.00 0.00 0.00 70 1010.1
20230205103025 65 305 0.0 0.0 0.00 0.00 0.00 71 1010.1
20230205101525 65 305 0.0 0.0 0.00 0.00 0.00 72 1010.3
20230205100024 65 305 0.0 0.0 0.00 0.00 0.00 72 1010.4
20230205094527 65 305 0.0 0.0 0.00 0.00 0.00 70 1010.5
20230205093019 65 305 0.0 0.0 0.00 0.00 0.00 69 1010.5
20230205091518 65 304 0.0 0.0 0.00 0.00 0.00 68 1010.6
20230205090015 65 304 0.0 0.0 0.00 0.00 0.00 69 1010.7
20230205084518 65 304 0.0 0.0 0.00 0.00 0.00 67 1010.8
20230205083014 65 304 0.0 0.0 0.00 0.00 0.00 68 1010.9
20230205081534 65 304 0.0 0.0 0.00 0.00 0.00 67 1011.0
20230205080013 65 304 0.0 0.0 0.00 0.00 0.00 66 1011.1
20230205074513 65 304 0.0 0.0 0.00 0.00 0.00 62 1011.1
20230205073007 66 304 0.0 0.0 0.00 0.00 0.00 60 1011.2
20230205071506 66 304 0.0 0.0 0.00 0.00 0.00 59 1011.4